EBCV

Details ICAO EBCV
Name Chievres AB
Region Belgium
Timezone Europe/Brussels (UTC+2.0)
Plans Departing 4
Arriving 5
Stats Elevation 201 ft / 61 m (AMSL)
Location 50.575840° 3.831076°
Runways 1
Magnetic Variation 0.997° E
Sunrise 2018-05-28 03:42:45 UTC / 2018-05-28 05:42:45 Local
Sunset 2018-05-28 19:44:02 UTC / 2018-05-28 21:44:02 Local
Advertisement - Login to hide

Runways

ID Width Length Bearing (true) Bearing (mag) Surface Threshold Offset Overrun Length
08 164 ft / 50 m 6,288 ft / 1,917 m 79.82° 78.82° Asphalt 0 ft / 0 m 0 ft / 0 m
26 164 ft / 50 m 6,288 ft / 1,917 m 259.84° 258.84° Asphalt 0 ft / 0 m 0 ft / 0 m

Approach Navaids

Runway Type Ident Frequency Range Bearing (true) Bearing (mag) Slope Elevation
26 Localiser ICV 108.55 MHz 18 nm / 33 km 260.20° 259.20° - 201 ft / 61 m (AMSL)

Map

Weather


0- 5 10 15 20 25 30 35+ Temperature / ° C

Clouds and Precipitation
Forecast for 2018-05-28 00:00 UTC. Updated an hour ago

Ground ~20,000 ft ~40,000 ft Winds

METAR

EBCV 272355Z AUTO 15003KT 9999 FEW140/// BKN150/// BKN180/// 19/16 Q1016 BLU

TAF

Not found

Frequencies

Tower 136.50 MHz TWR
Approach 126.62 MHz BRUSSELS APP
Tower 122.10 MHz TWR
Departure 126.62 MHz BRUSSELS DEP
Warning: Do not use this data for real-world aviation or navigation. No guarantee of current accuracy is given.